QuakeSat

operational
NORAD ID: 27845 Int'l Des: 2003-031 Owner: QUAFI Country: US
LEOCIRCULARRETROGRADESSO

QuakeSatについて

説明を読み込み中...

リアルタイム位置

3D地球を読み込み中...

次回通過

高度履歴

Altitude vs Time

uPlot chart will show altitude changes over time

軌道要素

1 27845U 03031F 26061.56577091 .00000546 00000-0 25269-3 0 9990
2 27845 98.6669 71.7191 0009227 147.4104 212.7646 14.24850559176420
Epoch: Mar 2, 2026 • Age: 29 hours

現在のステータス

高度 806.4 km
速度 7.46 km/s
衛星直下点 31.57°N, 15.12°E
打ち上げ日 Jun 30, 2003
運用期間 22.6 years
タイプ other

技術仕様

分類 Payload
質量 4.00 kg
乾燥質量 4.00 kg
総質量 4.00 kg
長さ 0.30 m
直径 0.10 m
スパン 0.60 m
形状 Box + Ant
製造者 STAN
バスタイプ Cubesat 3U
フェーズステータス In Orbit
所有者/国 QUAFI/US

大規模コンステレーション

Loading constellations...